owner,sensor,date,latitude,longitude,relative_humidity,qcFlag 
DISL,ioos:station:DISL:PPTA:1,2016-02-01T00:00:00Z,30.2791,-87.5561,92.6,1111122 
DISL,ioos:station:DISL:PPTA:1,2016-02-01T00:30:00Z,30.2791,-87.5561,93.2,1111122 
DISL,ioos:station:DISL:PPTA:1,2016-02-01T01:00:00Z,30.2791,-87.5561,93.7,1111122 
DISL,ioos:station:DISL:PPTA:1,2016-02-01T14:30:00Z,30.2791,-87.5561,94.6,1111122 
DISL,ioos:station:DISL:PPTA:1,2016-02-01T15:00:00Z,30.2791,-87.5561,91.1,1111122 
DISL,ioos:station:DISL:PPTA:1,2016-02-01T15:30:00Z,30.2791,-87.5561,90.4,1111122 
DISL,ioos:station:DISL:PPTA:1,2016-02-01T16:00:00Z,30.2791,-87.5561,86.2,1111122 
DISL,ioos:station:DISL:PPTA:1,2016-02-01T16:30:00Z,30.2791,-87.5561,87.9,1111122 
DISL,ioos:station:DISL:PPTA:1,2016-02-01T17:00:00Z,30.2791,-87.5561,86.3,1111122 
DISL,ioos:station:DISL:PPTA:1,2016-02-01T17:30:00Z,30.2791,-87.5561,85.2,1111122 
DISL,ioos:station:DISL:PPTA:1,2016-02-01T18:00:00Z,30.2791,-87.5561,86.3,1111122 
DISL,ioos:station:DISL:PPTA:1,2016-02-01T18:30:00Z,30.2791,-87.5561,84.4,1111122 
DISL,ioos:station:DISL:PPTA:1,2016-02-01T19:00:00Z,30.2791,-87.5561,84.0,1111122 
DISL,ioos:station:DISL:PPTA:1,2016-02-01T19:30:00Z,30.2791,-87.5561,88.8,1111122 
DISL,ioos:station:DISL:PPTA:1,2016-02-01T20:00:00Z,30.2791,-87.5561,91.2,1111122 
DISL,ioos:station:DISL:PPTA:1,2016-02-01T20:30:00Z,30.2791,-87.5561,91.1,1111122 
DISL,ioos:station:DISL:PPTA:1,2016-02-01T21:00:00Z,30.2791,-87.5561,91.9,1111122 
DISL,ioos:station:DISL:PPTA:1,2016-02-01T21:30:00Z,30.2791,-87.5561,90.5,1111122 
DISL,ioos:station:DISL:PPTA:1,2016-02-01T22:00:00Z,30.2791,-87.5561,91.8,1111122 
DISL,ioos:station:DISL:PPTA:1,2016-02-01T22:30:00Z,30.2791,-87.5561,94.8,1111122 
DISL,ioos:station:DISL:PPTA:1,2016-02-01T23:00:00Z,30.2791,-87.5561,96.1,1111122 
DISL,ioos:station:DISL:PPTA:1,2016-02-01T23:30:00Z,30.2791,-87.5561,98.7,1111122 
DISL,ioos:station:DISL:PPTA:1,2016-02-02T00:00:00Z,30.2791,-87.5561,99.2,1111122 
DISL,ioos:station:DISL:PPTA:1,2016-02-02T00:30:00Z,30.2791,-87.5561,99.2,1111122 
DISL,ioos:station:DISL:PPTA:1,2016-02-02T01:00:00Z,30.2791,-87.5561,99.3,1111122 
DISL,ioos:station:DISL:PPTA:1,2016-02-02T01:30:00Z,30.2791,-87.5561,99.3,1111122 
DISL,ioos:station:DISL:PPTA:1,2016-02-02T02:00:00Z,30.2791,-87.5561,99.3,1111122 
DISL,ioos:station:DISL:PPTA:1,2016-02-02T02:30:00Z,30.2791,-87.5561,99.3,1111122 
DISL,ioos:station:DISL:PPTA:1,2016-02-02T03:00:00Z,30.2791,-87.5561,99.3,1111122 
DISL,ioos:station:DISL:PPTA:1,2016-02-02T03:30:00Z,30.2791,-87.5561,99.3,1111122 
DISL,ioos:station:DISL:PPTA:1,2016-02-02T04:00:00Z,30.2791,-87.5561,99.3,1111122 
DISL,ioos:station:DISL:PPTA:1,2016-02-02T04:30:00Z,30.2791,-87.5561,99.2,1111122 
DISL,ioos:station:DISL:PPTA:1,2016-02-02T05:00:00Z,30.2791,-87.5561,99.3,1111122 
DISL,ioos:station:DISL:PPTA:1,2016-02-02T05:30:00Z,30.2791,-87.5561,99.3,1111122 
DISL,ioos:station:DISL:PPTA:1,2016-02-02T06:00:00Z,30.2791,-87.5561,99.3,1111122 
DISL,ioos:station:DISL:PPTA:1,2016-02-02T14:30:00Z,30.2791,-87.5561,98.2,1111122 
DISL,ioos:station:DISL:PPTA:1,2016-02-02T15:00:00Z,30.2791,-87.5561,97.3,1111122 
DISL,ioos:station:DISL:PPTA:1,2016-02-02T15:30:00Z,30.2791,-87.5561,96.8,1111122 
DISL,ioos:station:DISL:PPTA:1,2016-02-02T16:00:00Z,30.2791,-87.5561,96.4,1111122 
DISL,ioos:station:DISL:PPTA:1,2016-02-02T17:00:00Z,30.2791,-87.5561,95.2,1111122 
DISL,ioos:station:DISL:PPTA:1,2016-02-02T17:30:00Z,30.2791,-87.5561,94.5,1111122 
DISL,ioos:station:DISL:PPTA:1,2016-02-02T17:30:00Z,30.2791,-87.5561,88.3,1111122 
DISL,ioos:station:DISL:PPTA:1,2016-02-02T18:00:00Z,30.2791,-87.5561,95.6,1111122 
DISL,ioos:station:DISL:PPTA:1,2016-02-02T18:00:00Z,30.2791,-87.5561,86.4,1111122 
DISL,ioos:station:DISL:PPTA:1,2016-02-02T18:30:00Z,30.2791,-87.5561,94.5,1111122 
DISL,ioos:station:DISL:PPTA:1,2016-02-02T18:30:00Z,30.2791,-87.5561,79.77,1111122 
DISL,ioos:station:DISL:PPTA:1,2016-02-02T19:00:00Z,30.2791,-87.5561,95.7,1111122 
DISL,ioos:station:DISL:PPTA:1,2016-02-02T19:00:00Z,30.2791,-87.5561,84.8,1111122 
DISL,ioos:station:DISL:PPTA:1,2016-02-02T19:30:00Z,30.2791,-87.5561,95.6,1111122 
DISL,ioos:station:DISL:PPTA:1,2016-02-02T19:30:00Z,30.2791,-87.5561,89.3,1111122 
DISL,ioos:station:DISL:PPTA:1,2016-02-02T20:00:00Z,30.2791,-87.5561,94.8,1111122 
DISL,ioos:station:DISL:PPTA:1,2016-02-02T20:00:00Z,30.2791,-87.5561,89.3,1111122 
DISL,ioos:station:DISL:PPTA:1,2016-02-02T20:30:00Z,30.2791,-87.5561,95.2,1111122 
DISL,ioos:station:DISL:PPTA:1,2016-02-02T20:30:00Z,30.2791,-87.5561,76.01,1111122 
DISL,ioos:station:DISL:PPTA:1,2016-02-02T21:00:00Z,30.2791,-87.5561,95.1,1111122 
DISL,ioos:station:DISL:PPTA:1,2016-02-02T21:00:00Z,30.2791,-87.5561,78.54,1111122 
DISL,ioos:station:DISL:PPTA:1,2016-02-02T21:30:00Z,30.2791,-87.5561,95.5,1111122 
DISL,ioos:station:DISL:PPTA:1,2016-02-02T21:30:00Z,30.2791,-87.5561,74.61,1111122 
DISL,ioos:station:DISL:PPTA:1,2016-02-02T22:00:00Z,30.2791,-87.5561,95.8,1111122 
DISL,ioos:station:DISL:PPTA:1,2016-02-02T22:00:00Z,30.2791,-87.5561,73.37,1111122 
DISL,ioos:station:DISL:PPTA:1,2016-02-02T22:30:00Z,30.2791,-87.5561,96.3,1111122 
DISL,ioos:station:DISL:PPTA:1,2016-02-02T22:30:00Z,30.2791,-87.5561,72.79,1111122 
DISL,ioos:station:DISL:PPTA:1,2016-02-02T23:00:00Z,30.2791,-87.5561,96.8,1111122 
DISL,ioos:station:DISL:PPTA:1,2016-02-02T23:00:00Z,30.2791,-87.5561,67.57,1111122 
DISL,ioos:station:DISL:PPTA:1,2016-02-02T23:30:00Z,30.2791,-87.5561,72.08,1111122 
DISL,ioos:station:DISL:PPTA:1,2016-02-04T00:00:00Z,30.2791,-87.5561,74.26,1111122 
DISL,ioos:station:DISL:PPTA:1,2016-02-04T00:30:00Z,30.2791,-87.5561,73.14,1111122 
DISL,ioos:station:DISL:PPTA:1,2016-02-04T01:00:00Z,30.2791,-87.5561,79.35,1111122 
DISL,ioos:station:DISL:PPTA:1,2016-02-04T01:30:00Z,30.2791,-87.5561,78.84,1111122 
DISL,ioos:station:DISL:PPTA:1,2016-02-04T02:00:00Z,30.2791,-87.5561,80.8,1111122 
DISL,ioos:station:DISL:PPTA:1,2016-02-04T02:30:00Z,30.2791,-87.5561,85.4,1111122 
DISL,ioos:station:DISL:PPTA:1,2016-02-04T03:00:00Z,30.2791,-87.5561,68.12,1111122 
DISL,ioos:station:DISL:PPTA:1,2016-02-04T03:30:00Z,30.2791,-87.5561,56.03,1111122 
DISL,ioos:station:DISL:PPTA:1,2016-02-04T04:00:00Z,30.2791,-87.5561,52.78,1111122 
DISL,ioos:station:DISL:PPTA:1,2016-02-04T04:30:00Z,30.2791,-87.5561,53.64,1111122 
DISL,ioos:station:DISL:PPTA:1,2016-02-04T05:00:00Z,30.2791,-87.5561,51.66,1111122 
DISL,ioos:station:DISL:PPTA:1,2016-02-04T05:30:00Z,30.2791,-87.5561,54.01,1111122 
DISL,ioos:station:DISL:PPTA:1,2016-02-04T06:00:00Z,30.2791,-87.5561,52.62,1111122 
DISL,ioos:station:DISL:PPTA:1,2016-02-04T06:30:00Z,30.2791,-87.5561,52.79,1111122 
DISL,ioos:station:DISL:PPTA:1,2016-02-04T07:00:00Z,30.2791,-87.5561,55.46,1111122 
DISL,ioos:station:DISL:PPTA:1,2016-02-04T07:30:00Z,30.2791,-87.5561,52.55,1111122 
DISL,ioos:station:DISL:PPTA:1,2016-02-04T08:00:00Z,30.2791,-87.5561,53.31,1111122 
DISL,ioos:station:DISL:PPTA:1,2016-02-04T08:30:00Z,30.2791,-87.5561,53.14,1111122 
DISL,ioos:station:DISL:PPTA:1,2016-02-04T09:00:00Z,30.2791,-87.5561,56.08,1111122 
DISL,ioos:station:DISL:PPTA:1,2016-02-04T09:30:00Z,30.2791,-87.5561,61.96,1111122 
DISL,ioos:station:DISL:PPTA:1,2016-02-04T10:00:00Z,30.2791,-87.5561,60.43,1111122 
DISL,ioos:station:DISL:PPTA:1,2016-02-04T10:30:00Z,30.2791,-87.5561,64.41,1111122 
DISL,ioos:station:DISL:PPTA:1,2016-02-04T11:00:00Z,30.2791,-87.5561,65.09,1111122 
DISL,ioos:station:DISL:PPTA:1,2016-02-04T11:30:00Z,30.2791,-87.5561,65.07,1111122 
DISL,ioos:station:DISL:PPTA:1,2016-02-04T12:00:00Z,30.2791,-87.5561,67.74,1111122 
DISL,ioos:station:DISL:PPTA:1,2016-02-04T12:30:00Z,30.2791,-87.5561,65.66,1111122 
DISL,ioos:station:DISL:PPTA:1,2016-02-04T13:00:00Z,30.2791,-87.5561,66.66,1111122 
DISL,ioos:station:DISL:PPTA:1,2016-02-04T13:30:00Z,30.2791,-87.5561,67.52,1111122 
DISL,ioos:station:DISL:PPTA:1,2016-02-04T14:00:00Z,30.2791,-87.5561,66.8,1111122 
DISL,ioos:station:DISL:PPTA:1,2016-02-04T14:30:00Z,30.2791,-87.5561,63.99,1111122 
DISL,ioos:station:DISL:PPTA:1,2016-02-04T15:00:00Z,30.2791,-87.5561,56.05,1111122 
DISL,ioos:station:DISL:PPTA:1,2016-02-04T15:30:00Z,30.2791,-87.5561,52.79,1111122 
DISL,ioos:station:DISL:PPTA:1,2016-02-04T16:00:00Z,30.2791,-87.5561,53.47,1111122 
DISL,ioos:station:DISL:PPTA:1,2016-02-04T16:30:00Z,30.2791,-87.5561,47.79,1111122 
DISL,ioos:station:DISL:PPTA:1,2016-02-04T17:00:00Z,30.2791,-87.5561,46.96,1111122 
DISL,ioos:station:DISL:PPTA:1,2016-02-04T17:30:00Z,30.2791,-87.5561,46.14,1111122 
DISL,ioos:station:DISL:PPTA:1,2016-02-04T18:00:00Z,30.2791,-87.5561,38.92,1111122 
DISL,ioos:station:DISL:PPTA:1,2016-02-04T18:30:00Z,30.2791,-87.5561,38.99,1111122 
DISL,ioos:station:DISL:PPTA:1,2016-02-04T19:00:00Z,30.2791,-87.5561,34.81,1111122 
DISL,ioos:station:DISL:PPTA:1,2016-02-04T19:30:00Z,30.2791,-87.5561,35.74,1111122 
DISL,ioos:station:DISL:PPTA:1,2016-02-04T20:00:00Z,30.2791,-87.5561,36.46,1111122 
DISL,ioos:station:DISL:PPTA:1,2016-02-04T20:30:00Z,30.2791,-87.5561,35.33,1111122 
DISL,ioos:station:DISL:PPTA:1,2016-02-04T21:00:00Z,30.2791,-87.5561,35.44,1111122 
DISL,ioos:station:DISL:PPTA:1,2016-02-04T21:30:00Z,30.2791,-87.5561,36.91,1111122 
DISL,ioos:station:DISL:PPTA:1,2016-02-04T22:00:00Z,30.2791,-87.5561,33.15,1111122 
DISL,ioos:station:DISL:PPTA:1,2016-02-04T22:30:00Z,30.2791,-87.5561,34.01,1111122 
DISL,ioos:station:DISL:PPTA:1,2016-02-04T23:00:00Z,30.2791,-87.5561,35.03,1111122 
DISL,ioos:station:DISL:PPTA:1,2016-02-04T23:30:00Z,30.2791,-87.5561,38.66,1111122 
DISL,ioos:station:DISL:PPTA:1,2016-02-05T00:00:00Z,30.2791,-87.5561,40.64,1111122 
DISL,ioos:station:DISL:PPTA:1,2016-02-05T00:30:00Z,30.2791,-87.5561,40.68,1111122 
DISL,ioos:station:DISL:PPTA:1,2016-02-05T01:00:00Z,30.2791,-87.5561,39.35,1111122 
DISL,ioos:station:DISL:PPTA:1,2016-02-05T01:30:00Z,30.2791,-87.5561,40.1,1111122 
DISL,ioos:station:DISL:PPTA:1,2016-02-05T02:00:00Z,30.2791,-87.5561,38.37,1111122 
DISL,ioos:station:DISL:PPTA:1,2016-02-05T02:30:00Z,30.2791,-87.5561,41.99,1111122 
DISL,ioos:station:DISL:PPTA:1,2016-02-05T03:00:00Z,30.2791,-87.5561,43.54,1111122 
DISL,ioos:station:DISL:PPTA:1,2016-02-05T03:30:00Z,30.2791,-87.5561,45.21,1111122 
DISL,ioos:station:DISL:PPTA:1,2016-02-05T04:00:00Z,30.2791,-87.5561,52.29,1111122 
DISL,ioos:station:DISL:PPTA:1,2016-02-05T04:30:00Z,30.2791,-87.5561,47.82,1111122 
DISL,ioos:station:DISL:PPTA:1,2016-02-05T05:00:00Z,30.2791,-87.5561,53.02,1111122 
DISL,ioos:station:DISL:PPTA:1,2016-02-05T05:30:00Z,30.2791,-87.5561,52.17,1111122 
DISL,ioos:station:DISL:PPTA:1,2016-02-05T06:00:00Z,30.2791,-87.5561,51.52,1111122 
DISL,ioos:station:DISL:PPTA:1,2016-02-05T06:30:00Z,30.2791,-87.5561,52.18,1111122 
DISL,ioos:station:DISL:PPTA:1,2016-02-05T07:00:00Z,30.2791,-87.5561,54.17,1111122 
DISL,ioos:station:DISL:PPTA:1,2016-02-05T07:30:00Z,30.2791,-87.5561,54.85,1111122 
DISL,ioos:station:DISL:PPTA:1,2016-02-05T08:00:00Z,30.2791,-87.5561,54.79,1111122 
DISL,ioos:station:DISL:PPTA:1,2016-02-05T08:30:00Z,30.2791,-87.5561,58.83,1111122 
DISL,ioos:station:DISL:PPTA:1,2016-02-05T09:00:00Z,30.2791,-87.5561,60.95,1111122 
DISL,ioos:station:DISL:PPTA:1,2016-02-05T09:30:00Z,30.2791,-87.5561,61.82,1111122 
DISL,ioos:station:DISL:PPTA:1,2016-02-05T10:00:00Z,30.2791,-87.5561,62.91,1111122 
DISL,ioos:station:DISL:PPTA:1,2016-02-05T10:30:00Z,30.2791,-87.5561,67.91,1111122 
DISL,ioos:station:DISL:PPTA:1,2016-02-05T11:00:00Z,30.2791,-87.5561,66.78,1111122 
DISL,ioos:station:DISL:PPTA:1,2016-02-05T11:30:00Z,30.2791,-87.5561,70.42,1111122 
DISL,ioos:station:DISL:PPTA:1,2016-02-05T12:00:00Z,30.2791,-87.5561,71.7,1111122 
DISL,ioos:station:DISL:PPTA:1,2016-02-05T12:30:00Z,30.2791,-87.5561,69.27,1111122 
DISL,ioos:station:DISL:PPTA:1,2016-02-05T13:00:00Z,30.2791,-87.5561,69.89,1111122 
DISL,ioos:station:DISL:PPTA:1,2016-02-05T13:30:00Z,30.2791,-87.5561,67.04,1111122 
DISL,ioos:station:DISL:PPTA:1,2016-02-05T14:00:00Z,30.2791,-87.5561,64.73,1111122 
DISL,ioos:station:DISL:PPTA:1,2016-02-05T14:30:00Z,30.2791,-87.5561,53.49,1111122 
DISL,ioos:station:DISL:PPTA:1,2016-02-05T15:00:00Z,30.2791,-87.5561,53.9,1111122 
DISL,ioos:station:DISL:PPTA:1,2016-02-05T15:30:00Z,30.2791,-87.5561,44.95,1111122 
DISL,ioos:station:DISL:PPTA:1,2016-02-05T16:00:00Z,30.2791,-87.5561,44.33,1111122 
DISL,ioos:station:DISL:PPTA:1,2016-02-05T16:30:00Z,30.2791,-87.5561,41.38,1111122 
DISL,ioos:station:DISL:PPTA:1,2016-02-05T17:00:00Z,30.2791,-87.5561,34.23,1111122 
DISL,ioos:station:DISL:PPTA:1,2016-02-05T17:30:00Z,30.2791,-87.5561,26.33,1111122 
DISL,ioos:station:DISL:PPTA:1,2016-02-05T18:00:00Z,30.2791,-87.5561,31.04,1111122 
DISL,ioos:station:DISL:PPTA:1,2016-02-05T18:30:00Z,30.2791,-87.5561,34.87,1111122 
DISL,ioos:station:DISL:PPTA:1,2016-02-05T19:00:00Z,30.2791,-87.5561,25.4,1111122 
DISL,ioos:station:DISL:PPTA:1,2016-02-05T19:30:00Z,30.2791,-87.5561,28.06,1111122 
DISL,ioos:station:DISL:PPTA:1,2016-02-05T20:00:00Z,30.2791,-87.5561,23.28,1111122 
DISL,ioos:station:DISL:PPTA:1,2016-02-05T20:30:00Z,30.2791,-87.5561,22.49,1111122 
DISL,ioos:station:DISL:PPTA:1,2016-02-05T21:00:00Z,30.2791,-87.5561,29.09,1111122 
DISL,ioos:station:DISL:PPTA:1,2016-02-05T21:30:00Z,30.2791,-87.5561,26.77,1111122 
DISL,ioos:station:DISL:PPTA:1,2016-02-05T22:00:00Z,30.2791,-87.5561,22.29,1111122 
DISL,ioos:station:DISL:PPTA:1,2016-02-05T22:30:00Z,30.2791,-87.5561,24.51,1111122 
DISL,ioos:station:DISL:PPTA:1,2016-02-05T23:00:00Z,30.2791,-87.5561,29.88,1111122 
DISL,ioos:station:DISL:PPTA:1,2016-02-05T23:30:00Z,30.2791,-87.5561,33.88,1111122 
DISL,ioos:station:DISL:PPTA:1,2016-02-06T00:00:00Z,30.2791,-87.5561,38.22,1111122 
DISL,ioos:station:DISL:PPTA:1,2016-02-06T00:30:00Z,30.2791,-87.5561,42.4,1111122 
DISL,ioos:station:DISL:PPTA:1,2016-02-06T01:00:00Z,30.2791,-87.5561,40.25,1111122 
DISL,ioos:station:DISL:PPTA:1,2016-02-06T01:30:00Z,30.2791,-87.5561,41.69,1111122 
DISL,ioos:station:DISL:PPTA:1,2016-02-06T02:00:00Z,30.2791,-87.5561,41.89,1111122 
DISL,ioos:station:DISL:PPTA:1,2016-02-06T02:30:00Z,30.2791,-87.5561,45.59,1111122 
DISL,ioos:station:DISL:PPTA:1,2016-02-06T03:00:00Z,30.2791,-87.5561,41.76,1111122 
DISL,ioos:station:DISL:PPTA:1,2016-02-06T03:30:00Z,30.2791,-87.5561,47.17,1111122 
DISL,ioos:station:DISL:PPTA:1,2016-02-06T04:00:00Z,30.2791,-87.5561,44.33,1111122 
DISL,ioos:station:DISL:PPTA:1,2016-02-06T04:30:00Z,30.2791,-87.5561,48.74,1111122 
DISL,ioos:station:DISL:PPTA:1,2016-02-06T05:00:00Z,30.2791,-87.5561,47.75,1111122 
DISL,ioos:station:DISL:PPTA:1,2016-02-06T05:30:00Z,30.2791,-87.5561,48.58,1111122 
DISL,ioos:station:DISL:PPTA:1,2016-02-06T06:00:00Z,30.2791,-87.5561,49.06,1111122 
DISL,ioos:station:DISL:PPTA:1,2016-02-06T06:30:00Z,30.2791,-87.5561,49.37,1111122 
DISL,ioos:station:DISL:PPTA:1,2016-02-06T07:00:00Z,30.2791,-87.5561,47.9,1111122 
DISL,ioos:station:DISL:PPTA:1,2016-02-06T07:30:00Z,30.2791,-87.5561,49.92,1111122 
DISL,ioos:station:DISL:PPTA:1,2016-02-06T08:00:00Z,30.2791,-87.5561,51.94,1111122 
DISL,ioos:station:DISL:PPTA:1,2016-02-06T08:30:00Z,30.2791,-87.5561,54.2,1111122 
DISL,ioos:station:DISL:PPTA:1,2016-02-06T09:00:00Z,30.2791,-87.5561,55.37,1111122 
DISL,ioos:station:DISL:PPTA:1,2016-02-06T09:30:00Z,30.2791,-87.5561,58.07,1111122 
DISL,ioos:station:DISL:PPTA:1,2016-02-06T10:00:00Z,30.2791,-87.5561,58.66,1111122 
DISL,ioos:station:DISL:PPTA:1,2016-02-06T10:30:00Z,30.2791,-87.5561,65.44,1111122 
DISL,ioos:station:DISL:PPTA:1,2016-02-06T11:00:00Z,30.2791,-87.5561,61.75,1111122 
DISL,ioos:station:DISL:PPTA:1,2016-02-06T11:30:00Z,30.2791,-87.5561,64.49,1111122 
DISL,ioos:station:DISL:PPTA:1,2016-02-06T12:00:00Z,30.2791,-87.5561,64.97,1111122 
DISL,ioos:station:DISL:PPTA:1,2016-02-06T12:30:00Z,30.2791,-87.5561,62.99,1111122 
DISL,ioos:station:DISL:PPTA:1,2016-02-06T13:00:00Z,30.2791,-87.5561,64.6,1111122 
DISL,ioos:station:DISL:PPTA:1,2016-02-06T13:30:00Z,30.2791,-87.5561,56.04,1111122 
DISL,ioos:station:DISL:PPTA:1,2016-02-06T14:00:00Z,30.2791,-87.5561,56.27,1111122 
DISL,ioos:station:DISL:PPTA:1,2016-02-06T14:30:00Z,30.2791,-87.5561,50.85,1111122 
DISL,ioos:station:DISL:PPTA:1,2016-02-06T15:00:00Z,30.2791,-87.5561,48.51,1111122 
DISL,ioos:station:DISL:PPTA:1,2016-02-06T15:30:00Z,30.2791,-87.5561,47.61,1111122 
DISL,ioos:station:DISL:PPTA:1,2016-02-06T16:00:00Z,30.2791,-87.5561,36.38,1111122 
DISL,ioos:station:DISL:PPTA:1,2016-02-06T16:30:00Z,30.2791,-87.5561,29.15,1111122 
DISL,ioos:station:DISL:PPTA:1,2016-02-06T17:00:00Z,30.2791,-87.5561,30.07,1111122 
DISL,ioos:station:DISL:PPTA:1,2016-02-06T17:30:00Z,30.2791,-87.5561,27.82,1111122 
DISL,ioos:station:DISL:PPTA:1,2016-02-06T18:00:00Z,30.2791,-87.5561,26.38,1111122 
DISL,ioos:station:DISL:PPTA:1,2016-02-06T18:30:00Z,30.2791,-87.5561,31.95,1111122 
DISL,ioos:station:DISL:PPTA:1,2016-02-06T19:00:00Z,30.2791,-87.5561,36.22,1111122 
DISL,ioos:station:DISL:PPTA:1,2016-02-06T19:30:00Z,30.2791,-87.5561,25.7,1111122 
DISL,ioos:station:DISL:PPTA:1,2016-02-06T20:00:00Z,30.2791,-87.5561,31.92,1111122 
DISL,ioos:station:DISL:PPTA:1,2016-02-06T20:30:00Z,30.2791,-87.5561,31.68,1111122 
DISL,ioos:station:DISL:PPTA:1,2016-02-06T21:00:00Z,30.2791,-87.5561,32.02,1111122 
DISL,ioos:station:DISL:PPTA:1,2016-02-06T21:30:00Z,30.2791,-87.5561,35.24,1111122 
DISL,ioos:station:DISL:PPTA:1,2016-02-06T22:00:00Z,30.2791,-87.5561,35.21,1111122 
DISL,ioos:station:DISL:PPTA:1,2016-02-06T22:30:00Z,30.2791,-87.5561,37.32,1111122 
DISL,ioos:station:DISL:PPTA:1,2016-02-06T23:00:00Z,30.2791,-87.5561,35.72,1111122 
DISL,ioos:station:DISL:PPTA:1,2016-02-06T23:30:00Z,30.2791,-87.5561,41.53,1111122 
DISL,ioos:station:DISL:PPTA:1,2016-02-07T00:00:00Z,30.2791,-87.5561,39.18,1111122 
DISL,ioos:station:DISL:PPTA:1,2016-02-07T00:30:00Z,30.2791,-87.5561,35.76,1111122 
DISL,ioos:station:DISL:PPTA:1,2016-02-07T01:00:00Z,30.2791,-87.5561,34.53,1111122 
DISL,ioos:station:DISL:PPTA:1,2016-02-07T01:30:00Z,30.2791,-87.5561,38.81,1111122 
DISL,ioos:station:DISL:PPTA:1,2016-02-07T02:00:00Z,30.2791,-87.5561,38.3,1111122 
DISL,ioos:station:DISL:PPTA:1,2016-02-07T02:30:00Z,30.2791,-87.5561,42.37,1111122 
DISL,ioos:station:DISL:PPTA:1,2016-02-07T03:00:00Z,30.2791,-87.5561,40.56,1111122 
DISL,ioos:station:DISL:PPTA:1,2016-02-07T03:30:00Z,30.2791,-87.5561,39.06,1111122 
DISL,ioos:station:DISL:PPTA:1,2016-02-07T04:00:00Z,30.2791,-87.5561,45.15,1111122 
DISL,ioos:station:DISL:PPTA:1,2016-02-07T04:30:00Z,30.2791,-87.5561,45.29,1111122 
DISL,ioos:station:DISL:PPTA:1,2016-02-07T05:00:00Z,30.2791,-87.5561,47.44,1111122 
DISL,ioos:station:DISL:PPTA:1,2016-02-07T05:30:00Z,30.2791,-87.5561,40.94,1111122 
DISL,ioos:station:DISL:PPTA:1,2016-02-07T06:00:00Z,30.2791,-87.5561,41.66,1111122 
DISL,ioos:station:DISL:PPTA:1,2016-02-07T06:30:00Z,30.2791,-87.5561,44.91,1111122 
DISL,ioos:station:DISL:PPTA:1,2016-02-07T07:00:00Z,30.2791,-87.5561,48.2,1111122 
DISL,ioos:station:DISL:PPTA:1,2016-02-07T07:30:00Z,30.2791,-87.5561,47.97,1111122 
DISL,ioos:station:DISL:PPTA:1,2016-02-07T08:00:00Z,30.2791,-87.5561,50.44,1111122 
DISL,ioos:station:DISL:PPTA:1,2016-02-07T08:30:00Z,30.2791,-87.5561,49.82,1111122 
DISL,ioos:station:DISL:PPTA:1,2016-02-07T09:00:00Z,30.2791,-87.5561,51.88,1111122 
DISL,ioos:station:DISL:PPTA:1,2016-02-07T09:30:00Z,30.2791,-87.5561,52.94,1111122 
DISL,ioos:station:DISL:PPTA:1,2016-02-07T10:00:00Z,30.2791,-87.5561,54.24,1111122 
DISL,ioos:station:DISL:PPTA:1,2016-02-07T10:30:00Z,30.2791,-87.5561,54.07,1111122 
DISL,ioos:station:DISL:PPTA:1,2016-02-07T11:00:00Z,30.2791,-87.5561,57.29,1111122 
DISL,ioos:station:DISL:PPTA:1,2016-02-07T11:30:00Z,30.2791,-87.5561,55.62,1111122 
DISL,ioos:station:DISL:PPTA:1,2016-02-07T12:00:00Z,30.2791,-87.5561,54.49,1111122 
DISL,ioos:station:DISL:PPTA:1,2016-02-07T12:30:00Z,30.2791,-87.5561,59.22,1111122 
DISL,ioos:station:DISL:PPTA:1,2016-02-07T13:00:00Z,30.2791,-87.5561,61.41,1111122 
DISL,ioos:station:DISL:PPTA:1,2016-02-07T13:30:00Z,30.2791,-87.5561,55.01,1111122 
DISL,ioos:station:DISL:PPTA:1,2016-02-07T14:00:00Z,30.2791,-87.5561,47.77,1111122 
DISL,ioos:station:DISL:PPTA:1,2016-02-07T14:30:00Z,30.2791,-87.5561,45.98,1111122 
DISL,ioos:station:DISL:PPTA:1,2016-02-07T15:00:00Z,30.2791,-87.5561,40.94,1111122 
DISL,ioos:station:DISL:PPTA:1,2016-02-07T15:30:00Z,30.2791,-87.5561,36.42,1111122 
DISL,ioos:station:DISL:PPTA:1,2016-02-07T16:00:00Z,30.2791,-87.5561,31.76,1111122 
DISL,ioos:station:DISL:PPTA:1,2016-02-07T16:30:00Z,30.2791,-87.5561,29.87,1111122 
DISL,ioos:station:DISL:PPTA:1,2016-02-07T17:00:00Z,30.2791,-87.5561,26.41,1111122 
DISL,ioos:station:DISL:PPTA:1,2016-02-07T17:30:00Z,30.2791,-87.5561,24.94,1111122 
DISL,ioos:station:DISL:PPTA:1,2016-02-07T18:00:00Z,30.2791,-87.5561,25.56,1111122 
DISL,ioos:station:DISL:PPTA:1,2016-02-07T18:30:00Z,30.2791,-87.5561,27.54,1111122 
DISL,ioos:station:DISL:PPTA:1,2016-02-07T19:00:00Z,30.2791,-87.5561,24.77,1111122 
DISL,ioos:station:DISL:PPTA:1,2016-02-07T19:30:00Z,30.2791,-87.5561,24.8,1111122 
DISL,ioos:station:DISL:PPTA:1,2016-02-07T20:00:00Z,30.2791,-87.5561,22.17,1111122 
DISL,ioos:station:DISL:PPTA:1,2016-02-07T20:30:00Z,30.2791,-87.5561,23.23,1111122 
DISL,ioos:station:DISL:PPTA:1,2016-02-07T21:00:00Z,30.2791,-87.5561,23.44,1111122 
DISL,ioos:station:DISL:PPTA:1,2016-02-07T21:30:00Z,30.2791,-87.5561,21.87,1111122 
DISL,ioos:station:DISL:PPTA:1,2016-02-07T22:00:00Z,30.2791,-87.5561,23.27,1111122 
DISL,ioos:station:DISL:PPTA:1,2016-02-07T22:30:00Z,30.2791,-87.5561,30.48,1111122 
DISL,ioos:station:DISL:PPTA:1,2016-02-07T23:00:00Z,30.2791,-87.5561,33.29,1111122 
DISL,ioos:station:DISL:PPTA:1,2016-02-07T23:30:00Z,30.2791,-87.5561,44.39,1111122 
DISL,ioos:station:DISL:PPTA:1,2016-02-08T00:00:00Z,30.2791,-87.5561,49.8,1111122 
DISL,ioos:station:DISL:PPTA:1,2016-02-08T00:30:00Z,30.2791,-87.5561,53.26,1111122 
DISL,ioos:station:DISL:PPTA:1,2016-02-08T01:00:00Z,30.2791,-87.5561,55.25,1111122 
DISL,ioos:station:DISL:PPTA:1,2016-02-08T01:30:00Z,30.2791,-87.5561,57.31,1111122 
DISL,ioos:station:DISL:PPTA:1,2016-02-08T02:00:00Z,30.2791,-87.5561,60.33,1111122 
DISL,ioos:station:DISL:PPTA:1,2016-02-08T02:30:00Z,30.2791,-87.5561,65.23,1111122 
DISL,ioos:station:DISL:PPTA:1,2016-02-08T03:00:00Z,30.2791,-87.5561,65.13,1111122 
DISL,ioos:station:DISL:PPTA:1,2016-02-08T03:30:00Z,30.2791,-87.5561,65.13,1111122 
DISL,ioos:station:DISL:PPTA:1,2016-02-08T04:00:00Z,30.2791,-87.5561,63.35,1111122 
DISL,ioos:station:DISL:PPTA:1,2016-02-08T04:30:00Z,30.2791,-87.5561,64.79,1111122 
DISL,ioos:station:DISL:PPTA:1,2016-02-08T05:00:00Z,30.2791,-87.5561,61.3,1111122 
DISL,ioos:station:DISL:PPTA:1,2016-02-08T05:30:00Z,30.2791,-87.5561,63.55,1111122 
DISL,ioos:station:DISL:PPTA:1,2016-02-08T06:00:00Z,30.2791,-87.5561,66.08,1111122 
DISL,ioos:station:DISL:PPTA:1,2016-02-08T06:30:00Z,30.2791,-87.5561,65.49,1111122 
DISL,ioos:station:DISL:PPTA:1,2016-02-08T07:00:00Z,30.2791,-87.5561,67.58,1111122 
DISL,ioos:station:DISL:PPTA:1,2016-02-08T07:30:00Z,30.2791,-87.5561,67.33,1111122 
DISL,ioos:station:DISL:PPTA:1,2016-02-08T08:00:00Z,30.2791,-87.5561,67.5,1111122 
DISL,ioos:station:DISL:PPTA:1,2016-02-08T08:30:00Z,30.2791,-87.5561,62.27,1111122 
DISL,ioos:station:DISL:PPTA:1,2016-02-08T09:00:00Z,30.2791,-87.5561,59.33,1111122 
DISL,ioos:station:DISL:PPTA:1,2016-02-08T09:30:00Z,30.2791,-87.5561,57.14,1111122 
DISL,ioos:station:DISL:PPTA:1,2016-02-08T10:00:00Z,30.2791,-87.5561,58.61,1111122 
DISL,ioos:station:DISL:PPTA:1,2016-02-08T10:30:00Z,30.2791,-87.5561,63.41,1111122 
DISL,ioos:station:DISL:PPTA:1,2016-02-08T11:00:00Z,30.2791,-87.5561,67.2,1111122 
DISL,ioos:station:DISL:PPTA:1,2016-02-08T11:30:00Z,30.2791,-87.5561,72.06,1111122 
DISL,ioos:station:DISL:PPTA:1,2016-02-08T12:00:00Z,30.2791,-87.5561,77.06,1111122 
DISL,ioos:station:DISL:PPTA:1,2016-02-08T12:30:00Z,30.2791,-87.5561,80.1,1111122 
DISL,ioos:station:DISL:PPTA:1,2016-02-08T13:00:00Z,30.2791,-87.5561,80.7,1111122 
DISL,ioos:station:DISL:PPTA:1,2016-02-08T13:30:00Z,30.2791,-87.5561,76.92,1111122 
DISL,ioos:station:DISL:PPTA:1,2016-02-08T14:00:00Z,30.2791,-87.5561,73.58,1111122 
DISL,ioos:station:DISL:PPTA:1,2016-02-08T14:30:00Z,30.2791,-87.5561,69.72,1111122 
DISL,ioos:station:DISL:PPTA:1,2016-02-08T15:00:00Z,30.2791,-87.5561,67.13,1111122 
DISL,ioos:station:DISL:PPTA:1,2016-02-08T15:30:00Z,30.2791,-87.5561,67.11,1111122 